Starlink 4750

operational
NORAD ID: 53841 Int'l Des: 2022-114 Owner: SPXS Country: US Constellation: starlink
LEOCIRCULAR

Starlink 4750について

説明を読み込み中...

リアルタイム位置

3D地球を読み込み中...

次回通過

高度履歴

Altitude vs Time

uPlot chart will show altitude changes over time

軌道要素

1 53841U 22114Z 25259.50377657 .00000122 00000-0 25732-4 0 9992
2 53841 53.2200 356.2085 0001364 103.0803 257.0341 15.08832700166675
Epoch: Sep 16, 2025 • Age: 37 hours

現在のステータス

高度 541.9 km
速度 7.59 km/s
衛星直下点 -5.17°S, 21.08°W
打ち上げ日 Sep 19, 2022
運用期間 2.9 years
タイプ internet

技術仕様

分類 Payload
質量 305.00 kg
乾燥質量 290.00 kg
総質量 305.00 kg
長さ 0.20 m
直径 2.80 m
スパン 9.00 m
形状 Box + pan
製造者 SPXS
バスタイプ Starlink
フェーズステータス In Orbit
所有者/国 SPXS/US

大規模コンステレーション

Loading constellations...